Theta_e
319 333 334 335 342 343 346 344 348 348 348 347 348 350 351 350 355 362 355 353 349 353 351 342 327 341 349 346 344 336 331 334 331 331 336 338 341 342 339 339 338 338 340 340 341 343 345 345 346
331 329 333 338 345 348 345 343 343 344 346 345 348 350 352 355 349 355 354 352 349 351 353 350 325 337 343 348 343 333 332 335 333 331 332 335 340 341 338 339 341 341 341 342 342 343 343 345 346
327 329 334 338 341 347 344 342 341 341 343 345 346 347 349 352 350 351 351 351 352 351 351 355 329 326 339 345 344 338 334 339 337 333 332 334 338 338 336 338 342 344 344 343 344 344 343 343 343
330 332 334 333 342 340 342 343 341 342 342 341 342 348 348 346 349 351 351 350 348 349 356 353 340 326 332 340 343 343 341 343 340 335 334 335 335 334 332 334 335 338 341 342 343 344 343 342 341
328 332 333 335 338 337 336 338 340 342 341 342 342 344 350 348 351 352 353 350 348 347 352 350 341 331 326 333 338 340 342 342 338 337 336 335 333 332 332 333 334 335 336 338 339 339 339 338 339
329 330 331 333 335 334 333 337 340 339 340 341 343 343 349 347 349 353 354 352 349 349 349 351 339 338 330 332 335 338 338 338 338 338 337 336 335 334 334 335 336 335 336 337 337 338 338 338 338
329 330 329 329 331 332 333 336 339 339 342 340 336 342 352 350 349 352 350 350 348 348 349 351 350 349 332 329 330 333 335 337 337 336 336 336 336 335 335 333 332 333 334 336 337 338 339 340 340
326 327 328 328 329 331 331 333 333 337 336 334 330 334 349 343 347 346 347 349 348 346 347 351 352 350 347 341 328 328 329 330 331 332 332 330 330 330 329 329 330 329 331 334 337 338 338 339 339
326 325 328 329 329 331 330 331 335 332 336 331 329 330 339 348 345 344 345 347 349 346 347 349 350 351 350 347 342 334 332 330 330 332 330 331 340 342 341 339 338 341 337 332 334 336 337 338 339
325 328 329 329 330 330 329 329 332 331 332 333 329 330 336 343 347 344 341 344 345 347 347 347 347 348 349 349 350 350 349 347 346 346 347 337 345 347 347 346 344 341 336 334 334 333 335 337 343
326 327 327 326 327 327 327 325 326 328 330 328 326 329 333 339 343 341 338 339 342 344 346 346 350 350 348 348 349 348 348 351 354 354 354 354 355 350 349 348 349 349 347 346 346 345 343 346 345
325 326 325 324 324 324 324 325 325 326 325 325 327 331 331 333 335 333 334 340 340 344 343 348 351 351 351 351 349 347 342 341 344 344 344 348 348 350 349 348 353 350 349 348 347 348 350 349 345
325 324 324 323 323 324 324 324 325 326 325 326 329 328 332 333 333 331 332 339 345 344 346 348 351 352 355 353 347 342 336 333 334 333 333 333 333 337 336 339 342 342 344 343 345 342 337 343 345
324 323 323 323 324 323 324 324 325 327 326 326 326 327 328 329 329 331 335 336 347 350 349 349 350 350 348 346 341 336 332 329 329 328 330 329 330 333 328 327 328 328 331 336 340 339 343 336 340
324 323 324 324 323 323 324 325 326 327 327 327 327 327 328 328 329 330 329 337 347 348 347 346 342 340 340 337 333 331 329 328 327 327 328 329 329 330 325 327 327 328 331 329 329 331 332 335 336
324 325 326 325 324 323 323 327 327 326 327 328 328 328 329 332 332 331 330 338 343 343 344 341 337 336 333 333 330 328 328 327 326 325 325 325 324 324 325 323 325 327 326 326 329 331 331 330 329
325 326 326 326 325 325 324 328 328 327 328 328 329 329 330 332 332 332 330 330 335 340 341 338 335 334 331 330 330 329 328 326 326 324 323 325 324 323 325 324 323 321 322 323 326 327 329 331 332
327 326 325 325 326 324 325 327 328 327 327 328 329 330 330 332 332 331 331 331 331 334 335 334 333 333 332 329 328 326 325 325 324 323 324 325 324 324 325 324 327 327 323 323 326 326 325 326 328
325 325 325 325 325 324 325 327 328 327 327 328 328 329 329 330 329 330 331 330 332 332 333 332 332 330 328 327 325 325 324 324 323 324 324 325 325 326 327 325 324 325 323 328 327 325 323 322 323
324 325 325 325 324 324 325 327 328 327 327 327 327 327 327 327 328 329 330 330 331 331 332 331 331 332 330 328 328 328 327 326 326 326 327 327 326 326 325 326 325 324 325 323 327 326 324 322 321
325 325 326 326 325 325 325 326 328 327 327 326 325 325 325 325 325 325 325 325 326 328 329 331 331 331 331 330 328 330 330 329 327 327 327 328 327 327 327 326 327 326 325 324 325 324 324 322 321
324 325 324 322 323 324 326 327 329 329 328 326 325 325 325 324 324 323 322 322 321 321 321 322 323 324 324 326 325 326 325 325 326 326 325 325 326 326 326 326 326 326 325 323 323 322 323 321 321
322 320 320 320 321 322 322 323 327 328 328 327 326 325 325 324 323 322 322 321 320 319 318 318 318 319 320 321 322 322 321 321 322 322 320 321 321 321 321 323 325 325 325 325 325 323 323 322 319
320 320 321 322 322 322 324 323 319 326 326 323 326 324 324 323 322 321 320 319 319 318 317 317 317 317 317 318 318 320 320 320 320 320 320 319 317 317 318 319 324 326 324 325 323 324 323 323 322
320 321 324 325 324 324 323 322 320 327 325 324 322 324 323 322 321 321 319 318 317 317 317 317 316 316 315 315 315 316 317 319 320 320 318 317 317 316 317 320 320 323 324 325 324 323 323 322 322
319 319 322 324 322 320 320 321 328 326 324 322 322 322 322 321 320 319 317 317 316 316 315 315 315 314 314 313 313 314 315 315 316 316 316 316 316 316 315 316 317 319 322 324 324 323 322 322 321
321 324 320 322 325 323 321 320 324 323 323 322 321 321 320 319 319 318 316 315 315 314 313 313 313 313 313 313 314 314 314 315 315 316 317 315 315 314 314 315 317 318 319 322 323 323 322 321 321
320 320 324 325 327 321 320 319 325 324 323 320 320 320 320 319 318 317 315 314 314 313 313 312 312 312 313 312 312 312 313 313 314 312 311 311 311 312 313 314 314 315 315 317 321 322 321 320 320
322 323 322 322 324 324 323 321 322 322 321 320 320 320 320 318 317 316 315 314 312 311 311 311 311 311 311 311 311 311 311 312 311 311 310 310 309 309 310 310 311 312 313 315 317 322 320 319 318
319 320 321 325 327 323 323 324 323 321 321 321 320 320 319 318 316 315 313 312 310 310 310 310 311 310 310 310 310 310 310 309 309 308 309 309 308 308 309 309 309 310 311 313 315 318 316 315 317
Wind_Speed
9 5 7 9 8 6 10 7 16 4 20 13 11 6 8 8 9 3 7 7 12 14 9 8 8 5 7 15 16 16 18 16 16 16 16 15 12 10 10 10 9 9 8 8 8 8 7 6 6
9 7 10 8 2 12 6 13 5 15 16 12 10 7 6 11 9 12 12 8 8 11 8 7 8 9 6 11 15 16 18 16 16 15 15 13 12 10 9 9 8 8 8 7 6 6 5 4 3
7 11 10 14 10 9 3 17 10 12 8 6 6 6 3 6 8 6 14 12 9 8 9 7 8 11 10 10 14 15 18 16 14 15 14 13 11 10 9 7 6 5 5 5 4 3 3 2 1
8 9 9 13 14 14 12 13 10 8 7 4 2 14 9 13 6 8 11 11 11 13 13 8 8 9 13 12 13 15 16 15 14 13 13 12 11 10 9 7 7 5 4 4 3 2 1 1 2
12 9 14 16 12 16 6 13 6 1 3 9 4 11 12 11 12 12 11 10 4 8 10 8 10 10 11 14 14 15 16 17 14 14 12 11 11 10 8 7 7 6 5 5 4 4 4 4 5
10 10 14 8 7 3 3 5 6 5 7 2 10 16 16 15 11 12 13 11 9 8 8 7 10 10 10 11 14 15 15 15 15 15 13 12 11 10 9 8 8 8 7 8 7 7 7 7 8
14 14 16 8 7 7 5 3 5 6 20 22 5 12 18 15 11 13 13 13 11 10 10 10 10 12 12 12 12 13 15 16 15 15 14 13 12 11 11 11 11 11 10 10 10 10 10 10 11
10 13 9 8 3 12 8 4 2 8 8 8 8 13 12 29 11 13 12 12 11 10 10 11 12 12 12 11 12 14 14 14 14 14 14 12 12 13 12 13 13 13 12 13 12 13 13 13 13
10 12 12 4 6 14 7 5 3 4 3 8 8 13 14 17 12 9 9 10 11 9 10 10 11 12 12 11 11 13 13 13 13 12 12 10 8 10 12 13 13 15 15 15 15 15 15 15 16
11 13 8 11 5 8 6 7 6 5 3 4 1 14 9 11 9 4 4 14 12 14 11 10 8 10 10 10 11 10 10 9 10 8 7 7 10 7 9 9 12 16 18 17 18 17 16 16 14
12 8 10 1 9 7 8 3 4 9 16 10 11 10 7 10 6 10 11 9 12 17 11 15 11 11 11 11 9 8 8 8 7 5 6 8 8 7 10 12 15 13 13 14 19 19 17 16 14
1 7 3 7 2 2 2 11 10 11 8 7 6 9 4 2 5 5 8 8 4 14 13 13 10 9 6 8 8 7 6 5 5 4 2 3 4 7 9 10 13 12 15 18 12 21 21 20 8
4 6 1 3 3 2 5 5 10 10 9 7 5 2 4 8 6 1 3 5 11 8 7 3 7 7 6 5 5 4 5 4 3 2 1 2 4 4 6 7 9 12 15 20 19 11 19 24 12
4 2 5 4 9 3 6 4 5 9 5 4 4 5 7 9 13 17 13 2 6 4 2 4 2 4 6 6 6 6 4 4 3 2 2 3 3 3 6 7 8 10 11 13 19 21 24 21 24
2 10 7 5 6 4 5 10 5 4 3 4 4 5 7 8 13 14 20 19 8 4 1 2 2 5 7 7 7 6 5 4 3 1 3 4 4 4 4 5 6 8 9 11 13 17 20 24 24
9 7 12 12 7 5 10 6 6 3 4 5 6 7 8 12 14 14 14 12 5 4 1 2 1 3 3 4 4 4 4 4 3 2 1 1 2 4 4 5 5 8 10 9 11 12 14 16 20
9 13 7 10 3 2 11 6 7 1 4 4 5 7 8 11 14 15 14 11 8 4 2 1 0 1 2 3 3 3 3 3 3 2 1 2 2 4 4 4 6 7 8 8 9 11 12 14 15
6 10 4 7 10 7 8 1 5 1 1 3 4 6 8 10 13 15 15 13 10 8 5 3 2 2 1 1 2 2 2 3 4 3 1 1 2 3 5 5 5 8 8 8 8 10 12 13 16
12 7 10 3 6 10 9 3 4 1 3 3 4 5 7 9 11 14 15 14 12 9 6 5 5 6 6 6 7 6 9 5 6 6 3 3 3 5 6 8 8 8 10 7 9 10 12 13 14
11 12 12 1 4 7 12 10 7 5 1 1 2 5 5 7 10 11 12 13 12 10 9 8 8 8 8 8 7 9 10 7 6 5 4 6 6 7 9 10 11 12 11 13 8 9 10 12 13
10 10 11 8 8 9 14 15 15 8 6 3 3 3 4 6 8 8 10 11 11 10 9 8 7 7 8 9 10 9 9 11 12 10 7 8 6 9 12 14 15 16 16 16 6 10 10 12 11
13 10 8 12 12 13 3 11 11 15 10 7 4 1 3 4 5 7 9 10 9 9 7 7 8 10 9 9 9 8 12 14 18 17 18 16 14 15 17 19 19 19 20 23 16 16 11 10 12
13 11 11 11 12 14 16 10 9 10 12 9 6 2 5 6 6 7 9 9 10 10 11 12 12 12 12 13 12 13 16 16 17 18 19 18 19 22 21 22 23 22 22 23 22 15 12 13 12
9 12 13 13 11 11 15 3 5 9 9 5 6 5 3 9 10 7 11 13 15 16 18 17 18 19 19 18 18 18 19 19 20 20 21 23 25 23 20 21 20 21 24 22 25 17 15 13 10
6 9 8 6 9 7 6 5 7 8 5 8 7 4 5 8 11 12 18 21 22 21 20 21 22 22 21 21 21 21 21 22 23 24 26 24 25 25 23 19 18 17 22 22 25 22 19 16 13
8 7 6 6 7 13 12 9 7 8 5 2 2 4 9 14 12 17 22 24 23 22 24 25 25 25 24 24 25 23 24 26 27 26 25 24 24 26 28 30 26 25 24 25 27 26 22 20 17
5 4 7 7 13 10 7 1 14 7 3 6 9 8 12 10 15 16 22 28 26 26 25 26 27 27 26 27 26 25 25 26 27 28 26 28 24 27 28 28 27 25 25 24 26 28 26 24 18
6 6 5 4 4 9 10 13 8 2 5 11 10 14 15 18 19 18 21 24 26 27 28 28 28 28 28 29 29 28 28 28 22 19 21 22 25 28 29 30 30 29 30 30 29 30 29 27 24
6 9 5 3 6 6 8 7 10 7 9 12 16 17 17 15 17 20 22 28 29 27 30 31 31 32 33 31 31 31 27 26 27 28 29 27 26 29 31 30 29 30 31 33 31 31 29 28 25
7 9 3 3 7 8 11 10 4 6 10 11 12 11 12 19 20 20 22 25 29 31 32 32 33 34 35 31 28 28 27 30 28 26 26 23 23 26 26 26 29 30 31 30 31 29 23 23 22
Wind_Direction
277 266 258 261 250 102 15 336 51 155 88 74 69 32 42 11 29 34 123 107 110 121 120 121 155 155 148 170 175 180 178 175 171 167 166 162 157 147 140 138 131 125 124 119 113 106 98 91 79
262 259 248 272 65 310 352 50 21 47 70 89 110 123 52 73 45 113 125 118 109 120 122 139 158 169 157 176 180 179 180 179 175 172 171 170 167 159 153 147 139 135 133 128 119 111 106 102 94
260 244 278 247 197 219 140 263 79 73 85 61 111 60 68 85 115 80 107 128 116 136 139 164 168 171 174 175 185 182 183 183 180 177 175 174 175 169 164 158 150 145 143 140 134 124 114 106 91
238 215 253 247 73 323 153 245 78 124 118 67 357 96 95 81 111 100 126 139 149 153 126 155 170 170 177 180 177 185 185 186 182 182 181 182 178 180 177 180 176 177 181 178 175 190 198 232 268
246 261 256 267 182 185 11 17 27 149 94 69 7 112 97 106 113 122 132 142 128 111 111 140 170 173 181 185 186 184 185 186 182 184 183 187 183 188 190 202 207 206 208 218 229 233 243 249 260
251 253 279 321 20 230 9 52 333 320 51 255 28 127 117 126 136 141 143 143 142 132 122 143 167 172 178 182 185 191 189 192 186 186 183 193 194 201 203 214 227 230 232 239 239 248 255 257 262
255 275 274 337 64 129 78 348 254 151 62 5 8 60 72 119 130 141 146 149 150 150 146 149 156 166 176 182 184 191 191 194 193 193 196 197 211 217 223 226 234 239 240 244 246 249 257 263 269
288 287 286 248 145 88 104 185 26 50 347 148 347 48 102 250 154 139 140 157 143 162 156 154 163 166 174 179 183 189 196 198 203 204 212 215 225 234 240 246 248 248 248 249 250 253 257 264 268
248 270 252 166 284 103 132 186 30 20 43 36 27 41 97 143 159 160 146 156 157 182 167 158 170 165 180 174 189 191 193 200 206 215 216 220 232 248 243 251 243 260 258 255 254 256 260 266 271
242 246 42 25 33 121 129 337 95 256 104 162 311 98 96 124 164 164 202 169 165 191 163 160 161 169 176 174 182 187 201 204 201 204 219 230 227 252 262 277 254 267 261 259 255 255 259 264 268
225 271 75 71 21 357 104 158 342 344 47 33 351 60 110 148 171 202 171 195 182 180 159 155 166 176 178 180 181 185 199 201 201 203 212 245 251 249 247 246 238 245 246 244 249 233 224 224 236
254 37 57 63 90 272 194 73 64 39 21 24 28 1 57 163 154 139 340 34 204 163 94 140 159 175 205 170 197 174 183 177 176 187 229 239 278 241 269 275 289 279 267 244 286 264 226 215 248
140 143 95 161 121 52 70 80 96 49 22 33 42 163 7 349 348 113 140 20 15 7 52 90 133 174 180 184 184 166 164 163 154 160 329 328 301 309 287 301 285 285 293 293 287 249 262 256 236
87 260 175 204 127 190 142 86 331 41 13 58 8 11 6 354 348 336 326 304 95 43 32 37 141 179 179 174 170 171 149 131 133 109 31 13 357 339 310 302 301 297 296 298 306 306 312 301 292
192 215 178 194 177 179 202 169 86 37 23 26 351 353 346 7 358 1 334 326 62 62 14 156 155 154 157 156 161 149 150 149 137 112 57 40 26 2 346 324 317 325 316 302 301 306 304 299 295
236 269 202 134 180 125 247 150 94 27 17 21 9 11 13 36 13 4 358 355 31 326 87 304 204 156 133 129 145 147 144 152 161 171 168 47 32 11 351 331 334 326 319 313 317 318 310 302 298
202 253 198 143 233 164 209 136 99 42 55 37 28 31 34 33 32 23 19 8 3 346 325 300 215 134 147 121 144 146 147 171 198 221 233 13 36 29 13 359 347 343 325 320 321 318 315 313 300
239 219 195 287 144 231 247 127 94 40 95 79 57 52 47 47 41 37 36 36 32 31 19 353 336 352 313 185 180 187 197 216 225 219 183 354 352 7 5 334 336 342 325 325 329 318 310 302 296
325 311 292 261 83 289 276 319 142 190 219 112 65 54 64 63 53 50 49 47 52 46 33 7 3 352 317 279 259 221 238 209 232 236 226 283 317 321 324 315 319 317 311 310 314 316 310 306 302
293 282 272 290 194 285 272 239 166 222 172 128 84 79 50 56 59 58 53 46 46 40 31 35 18 12 345 336 332 323 324 288 280 281 269 281 293 306 307 312 306 302 296 294 285 300 306 304 297
263 291 321 310 310 233 255 259 182 192 188 152 125 103 83 40 26 31 46 42 34 41 32 32 12 1 350 344 323 310 288 271 265 279 296 266 282 294 294 289 285 288 285 289 272 284 283 291 294
303 13 305 290 280 277 144 285 172 177 202 202 183 169 14 16 16 18 356 13 9 8 22 13 4 355 348 340 328 305 293 288 294 300 300 300 286 276 276 276 271 267 270 281 278 273 262 274 284
317 333 303 296 281 280 267 233 84 151 206 194 206 272 304 326 348 350 350 344 332 337 338 332 330 324 318 317 311 306 300 295 292 291 292 289 283 275 273 269 259 263 262 262 273 266 264 275 268
302 277 262 249 248 251 233 275 243 177 208 242 162 225 310 315 316 325 318 320 315 320 313 315 317 314 313 307 297 289 284 284 287 287 289 285 282 281 279 280 270 249 254 255 263 245 245 253 274
287 318 297 235 205 255 99 278 302 73 51 353 351 329 302 307 294 329 332 321 313 310 314 315 309 307 306 303 304 299 292 287 280 279 283 291 286 280 278 282 290 273 261 254 256 247 238 237 243
302 318 289 305 323 316 319 241 125 86 91 36 343 292 299 294 328 315 303 303 314 319 317 311 304 303 304 303 301 300 296 288 285 278 278 285 288 287 288 293 287 277 269 254 250 253 239 240 233
18 272 14 299 279 262 279 27 132 92 162 233 243 284 295 303 300 302 315 323 326 314 308 307 304 299 304 306 303 296 291 287 286 285 282 276 282 285 286 286 280 275 272 259 246 243 238 239 233
300 16 242 201 291 312 333 300 75 224 298 337 316 303 317 329 324 314 318 314 303 305 304 303 303 303 302 299 297 299 301 295 297 316 310 305 298 293 289 283 277 272 273 272 254 242 232 235 231
181 204 224 319 300 305 307 335 42 18 330 313 308 319 342 325 312 307 314 304 305 318 316 313 311 308 303 300 300 297 298 302 297 293 291 290 291 287 283 284 282 281 275 266 256 243 232 233 231
285 301 297 277 279 285 308 307 55 333 283 294 296 334 318 278 298 307 315 321 326 319 312 314 314 310 306 306 308 311 305 298 293 289 288 284 279 283 282 278 274 276 272 269 263 245 230 242 232